Regional Weather Roundup
Issued by NWS

Home | Current Version | Previous Version | Text Only | Print | Product List | Glossary Off
Versions: 1 2 3 4 5 6 7 8 9 10 11 12 13 14 15 16 17 18 19 20 21 22 23 24 25 26 27 28 29 30 31 32 33 34 35 36 37 38 39 40 41 42 43 44 45 46 47 48 49 50

000
ASUS43 KFSD 250102
RWRSD

WEATHER ROUNDUP FOR SOUTH DAKOTA
NATIONAL WEATHER SERVICE SIOUX FALLS SD
700 PM CST SAT JAN 24 2015

NOTE: "FAIR" INDICATES FEW OR NO CLOUDS BELOW 12,000 FEET WITH NO
SIGNIFICANT WEATHER AND/OR OBSTRUCTIONS TO VISIBILITY.


SDZ001>005-009-010-012>017-250200-
NORTHWEST AND NORTH CENTRAL SOUTH DAKOTA

CITY           SKY/WX    TMP DP  RH WIND       PRES   REMARKS
BUFFALO          N/A     41  33  73 NW33G46   29.81R
FAITH            N/A     42  33  70 NW32G46   29.78R
MOBRIDGE       CLOUDY    39  36  89 NW21G32   29.66R
$$

SDZ012>016-024>037-041>051-057-063-072>074-250200-
SOUTHWEST AND SOUTH CENTRAL SOUTH DAKOTA

CITY           SKY/WX    TMP DP  RH WIND       PRES   REMARKS
RAPID CTY ARPT PTCLDY    43  29  57 NW45G54   29.87R
PIERRE         CLOUDY    44  34  67 NW36G46   29.66R
CUSTER         CLEAR     35  21  56 NW16G32   29.90R WCI  25
PHILIP         PTCLDY    46  33  60 NW26G38   29.76R
PINE RIDGE     PTCLDY    39  33  79 NW7       29.89R
WINNER         CLOUDY    48  36  63 NW32G46   29.69R
$$

SDZ004>011-016>023-039-040-250200-
NORTHEAST SOUTH DAKOTA

CITY           SKY/WX    TMP DP  RH WIND       PRES   REMARKS
ABERDEEN       LGT SNOW  33  31  92 N14       29.63R FOG     WCI  23
WATERTOWN      CLOUDY    34  32  92 N6        29.56S WCI  29
SISSETON         N/A     32  32 100 N8        29.62R WCI  25
$$

SDZ017-020-022-023-036>040-048>070-250200-
SOUTHEAST SOUTH DAKOTA

CITY           SKY/WX    TMP DP  RH WIND       PRES   REMARKS
SIOUX FALLS    CLOUDY    36  33  89 CALM      29.56F
HURON          LGT RAIN  38  36  92 W10       29.58R
MITCHELL       CLOUDY    44  37  76 NW15      29.59R
YANKTON        CLOUDY    48  36  61 W10       29.59S
$$

ABBREVIATIONS USED IN REMARKS
   TC - TEMPERATURE IN CELSIUS
  WCI - WIND CHILL INDEX
   HX - HEAT INDEX
  VSB - VISIBILITY



USA.gov is the U.S. government's official web portal to all federal, state and local government web resources and services.